Theta_e
352 353 353 353 353 352 352 350 348 346 346 345 343 342 342 343 341 341 341 342 344 343 341 338 334 333 336 339 336 330 331 330 322 319 319 318 318 319 319 319 319 318 318 317 318 319 319 319 322 326 329 331 333 333 332 331 331 331 330 329 327 327 326 324 324 324 324 324 322 323 324 324 324 324 325 326 326 326 326 325 323 321 320 318 318
353 353 354 354 354 353 352 352 351 349 348 347 345 343 342 342 342 341 341 341 343 343 340 337 335 334 336 338 336 331 331 331 325 320 319 318 319 319 319 319 320 319 318 318 318 318 319 318 320 325 328 331 333 333 331 329 329 329 328 327 326 326 325 326 326 324 323 323 323 325 325 326 326 326 327 327 327 327 327 326 323 321 320 319 319
354 354 354 354 354 354 353 353 352 352 350 348 346 344 342 342 342 341 341 341 342 342 340 337 336 337 337 338 337 332 331 333 331 325 320 318 318 319 319 319 320 321 320 319 318 318 320 320 319 322 326 329 332 333 332 330 330 329 326 325 326 326 326 327 327 326 324 324 324 326 327 327 328 328 328 328 328 328 328 327 324 321 320 319 319
355 355 355 355 356 355 354 353 353 353 352 349 346 344 343 343 343 342 341 341 341 341 339 337 337 338 339 339 338 336 334 335 334 331 327 322 319 319 319 319 320 321 320 320 319 318 321 322 321 323 327 329 332 334 334 333 333 330 326 325 326 325 326 328 328 327 326 325 325 326 327 328 328 328 328 328 328 328 328 328 326 323 321 320 319
356 356 356 356 357 356 355 353 353 352 351 349 346 344 344 344 342 341 341 341 341 341 340 338 337 338 338 338 338 337 337 337 337 336 335 330 324 319 319 320 320 320 321 320 319 319 320 322 323 324 327 329 331 333 333 333 332 328 325 326 327 325 326 327 328 328 329 327 326 327 328 328 327 327 328 328 329 329 329 329 328 326 324 321 320
357 357 357 357 358 357 356 354 352 351 350 349 346 345 344 344 342 341 341 340 340 341 340 338 337 337 338 338 338 338 338 339 339 339 339 337 332 325 320 319 320 320 320 320 320 319 320 322 323 324 325 327 328 330 331 329 326 324 324 326 327 327 328 328 329 331 331 329 327 327 327 327 328 328 327 328 330 330 330 329 328 327 325 322 320
359 358 358 358 358 358 357 355 351 349 347 347 346 345 345 344 343 342 341 341 341 340 339 338 336 337 338 339 339 339 339 340 340 340 339 339 337 332 325 320 319 320 320 319 320 319 320 321 322 323 323 324 325 328 329 328 325 325 326 328 328 329 331 331 332 332 330 328 327 326 327 327 328 328 327 327 328 329 329 329 328 325 322 320 319
359 359 359 359 359 358 357 355 352 348 346 346 347 347 345 344 344 343 343 343 341 339 338 337 337 338 338 339 340 340 341 340 339 339 339 339 338 338 333 325 320 319 320 320 320 319 320 321 323 324 324 324 325 327 329 329 327 326 328 330 331 331 332 332 331 330 329 328 327 326 327 328 329 329 327 326 326 327 328 329 327 323 319 318 318
359 360 360 359 359 358 357 356 354 351 348 347 347 347 345 344 344 345 346 344 342 341 339 339 339 339 338 339 341 342 342 341 340 339 339 339 339 339 337 332 325 320 319 320 320 321 320 322 324 326 326 326 328 330 330 328 326 327 329 332 334 334 333 331 330 329 329 328 328 327 328 329 329 329 327 327 326 326 327 328 326 322 321 320 318
359 359 359 359 359 359 358 357 356 354 352 349 346 345 345 344 345 346 347 346 344 343 342 341 340 339 337 339 341 342 342 341 340 340 341 341 341 341 340 338 333 326 321 319 320 322 322 322 323 325 326 326 328 331 330 326 324 329 333 334 334 333 332 332 331 329 329 329 329 329 329 329 329 328 327 327 326 326 327 327 325 323 323 323 320
358 359 358 358 358 359 359 358 357 356 354 350 347 345 344 344 346 347 348 348 347 346 345 343 340 338 338 340 341 341 340 339 339 341 342 343 344 344 342 341 339 334 327 321 320 321 322 323 322 323 324 325 327 329 330 327 326 331 335 335 334 333 332 332 331 329 330 330 330 331 331 330 329 327 326 327 326 326 326 326 325 325 326 325 323
358 358 358 358 358 359 359 358 358 357 355 353 349 347 346 346 347 349 349 349 348 348 347 344 341 339 340 341 342 341 339 338 339 342 344 345 345 345 344 343 342 340 335 329 322 320 322 324 323 323 323 325 327 328 328 329 331 334 335 335 334 333 333 333 332 331 330 330 331 331 331 330 328 325 325 327 326 326 325 324 325 326 326 326 325
358 358 358 358 358 358 358 358 358 357 356 354 352 350 349 349 350 351 351 349 348 348 346 344 343 343 343 343 342 342 340 340 342 344 345 346 346 347 346 345 344 342 340 335 328 322 321 322 323 324 322 324 327 328 327 330 334 335 336 335 334 334 333 333 332 330 327 327 330 331 330 329 327 325 326 327 326 324 323 323 324 325 326 325 325
357 358 358 358 357 357 358 358 358 358 357 355 354 353 351 351 351 352 352 351 349 347 346 345 345 344 344 343 344 343 342 343 344 346 347 348 348 348 347 346 345 343 341 339 334 327 322 321 322 324 324 323 325 327 328 330 333 335 335 335 334 334 333 332 331 327 325 326 328 329 329 328 326 326 326 326 325 323 323 324 324 325 325 325 323
358 358 358 358 357 357 357 358 358 358 357 357 356 355 353 353 353 353 353 353 350 347 345 345 345 344 344 345 345 345 344 345 347 348 349 350 350 350 349 347 346 344 342 340 338 333 329 324 321 323 326 324 323 328 330 331 334 335 334 334 334 333 332 331 328 325 323 323 325 327 328 327 326 326 326 325 323 323 324 325 325 324 324 323 321
357 358 358 358 358 357 357 358 358 359 358 358 356 355 354 354 353 354 354 353 351 350 348 346 346 345 345 347 347 346 347 350 351 351 351 352 351 350 349 347 346 345 343 341 340 337 334 329 323 325 328 326 326 331 333 334 335 335 334 333 332 331 331 329 325 322 321 322 325 328 328 327 326 326 325 324 324 324 325 325 324 322 322 321 320
357 357 358 358 357 357 358 358 359 359 358 358 356 355 354 353 353 354 355 354 353 352 350 349 348 348 349 349 348 349 352 353 353 353 353 353 352 351 349 348 346 345 344 342 341 339 336 331 327 328 329 327 328 334 336 336 336 333 332 330 328 328 329 326 322 319 320 323 327 329 329 327 326 325 324 325 325 326 325 323 321 320 320 320 320
357 357 357 358 358 358 358 358 358 358 358 357 356 355 355 353 353 353 354 354 353 351 350 351 351 352 352 352 352 353 354 355 355 355 354 353 352 351 349 348 346 345 344 343 341 340 337 332 329 329 330 329 331 336 338 337 335 333 332 330 327 326 326 324 321 319 320 325 329 330 329 327 326 325 325 326 326 325 322 320 320 319 320 320 320
356 356 356 357 359 359 359 359 358 358 357 356 355 355 355 354 353 353 353 353 352 352 352 354 354 354 354 355 356 356 356 356 355 355 355 353 352 350 348 347 346 345 344 343 341 340 338 334 330 329 330 332 335 337 338 336 334 333 333 330 327 326 325 323 321 319 320 326 330 329 328 328 326 324 324 324 324 321 319 319 319 319 319 318 318
353 354 355 357 359 359 360 359 359 358 357 356 355 355 355 355 354 354 353 354 354 354 355 355 356 356 356 357 357 357 357 356 356 355 353 351 350 349 348 347 347 345 345 343 342 341 338 334 330 328 329 333 336 338 338 336 334 333 332 329 327 325 324 321 320 320 323 328 329 327 326 324 322 320 321 321 320 318 318 319 319 319 318 317 317
351 354 356 357 358 360 360 359 359 358 357 357 356 355 356 356 355 355 355 355 356 356 357 357 358 358 358 357 357 357 356 356 354 353 352 350 350 348 347 347 346 345 343 342 341 340 337 333 329 326 326 330 333 334 334 332 332 332 332 329 325 322 321 320 322 325 328 329 327 324 322 320 319 319 319 318 318 318 319 320 319 319 318 317 315
351 354 357 358 358 359 359 359 359 359 358 358 358 356 356 357 356 356 357 357 357 357 358 359 358 359 358 358 357 356 356 354 353 351 351 349 347 346 345 345 343 342 340 338 337 335 334 331 327 324 324 327 330 330 330 330 331 332 330 326 323 321 322 325 327 329 327 325 322 320 319 318 318 318 318 318 318 318 318 319 319 318 318 315 311
351 356 357 358 358 358 357 358 358 359 359 358 358 358 358 358 358 359 358 358 358 359 359 359 359 359 358 357 357 356 354 353 352 350 348 344 342 342 343 343 341 339 337 335 333 331 329 327 326 326 328 330 331 331 332 332 331 329 326 324 325 326 327 328 327 325 322 320 319 318 317 317 317 317 317 316 316 316 316 316 316 316 316 312 308
353 357 357 356 357 357 356 356 357 358 359 358 358 359 359 359 360 360 359 359 359 359 360 360 359 359 358 357 356 355 353 351 349 347 344 341 340 341 341 341 339 337 335 333 332 331 331 330 330 331 333 333 334 333 331 329 326 323 324 327 329 328 327 324 322 320 319 318 317 316 316 315 315 315 315 315 315 315 314 314 314 314 313 309 306
357 356 356 356 355 355 355 355 356 358 359 359 359 360 360 360 361 361 361 361 361 361 361 360 359 359 358 357 355 352 350 348 347 345 342 341 340 340 340 339 338 336 334 334 334 334 335 334 334 334 333 331 330 328 325 323 322 324 326 328 327 324 322 321 320 319 318 317 317 316 316 315 315 316 316 316 316 315 315 315 315 313 309 306 305
359 358 357 355 354 354 355 357 359 360 360 360 360 360 360 361 361 361 363 363 362 362 361 360 360 358 357 355 352 350 348 346 345 344 342 341 340 339 339 338 337 336 335 335 336 336 336 335 335 333 329 326 326 325 324 325 326 326 326 325 323 321 321 321 320 319 318 317 317 316 316 316 316 316 316 316 316 316 316 315 312 309 306 306 306
360 361 359 357 356 356 357 358 361 362 362 362 362 362 362 362 362 363 364 363 363 363 361 359 358 356 354 352 350 348 347 345 344 343 342 341 340 339 338 337 336 336 336 336 336 336 335 335 335 332 328 327 327 326 326 326 326 325 324 322 321 322 321 320 319 318 318 318 317 317 317 317 317 317 317 317 317 316 314 311 308 306 306 306 306
360 362 362 362 361 360 361 362 363 364 364 364 364 364 364 364 364 364 364 363 362 360 358 357 355 352 351 350 348 346 345 344 343 341 341 340 340 339 338 337 337 336 336 336 335 334 335 336 334 329 326 328 328 325 324 324 324 323 322 322 322 323 321 320 319 318 318 318 318 318 318 318 318 317 316 315 314 312 309 307 307 306 306 306 306
362 364 365 365 365 365 365 364 364 364 365 365 365 365 365 365 364 362 361 359 357 354 354 353 352 350 349 347 344 342 342 342 341 340 340 340 339 339 338 338 337 336 336 335 335 335 335 333 329 324 325 327 327 324 323 323 323 323 324 323 323 322 321 320 319 319 319 319 318 318 318 317 316 315 313 311 310 309 307 307 307 306 306 306 306
366 366 366 366 364 364 364 365 365 365 366 366 366 365 363 361 359 356 354 353 352 351 350 350 349 348 346 343 341 340 340 340 340 340 340 340 339 338 338 337 336 336 335 334 334 334 331 327 324 324 326 326 324 323 324 324 324 324 324 324 323 322 321 320 319 319 319 319 319 318 317 315 314 312 311 310 309 307 307 306 306 306 306 306 305
364 366 365 361 357 356 358 360 363 364 364 364 364 362 358 355 352 350 348 348 349 349 348 346 346 344 342 340 340 340 340 340 340 340 340 340 339 338 337 336 335 334 331 330 328 326 324 324 325 326 325 324 324 325 325 325 325 324 324 324 324 323 321 320 320 320 320 319 318 316 315 313 312 312 311 310 308 306 306 306 306 306 306 305 305
353 355 354 352 353 353 351 351 353 357 357 357 357 356 353 350 348 347 346 346 347 346 344 343 342 341 341 341 341 341 340 340 340 340 339 338 338 337 336 334 332 329 326 325 324 323 324 326 326 325 324 325 325 325 325 325 324 324 323 323 324 323 322 321 320 319 319 318 316 314 313 313 313 312 311 308 306 305 305 306 306 306 305 304 304
350 351 349 348 350 350 347 345 348 352 353 352 352 352 350 346 346 347 347 347 346 344 342 341 341 341 341 341 340 340 340 339 338 338 336 335 336 335 333 331 329 327 327 327 327 327 327 326 325 325 325 325 325 324 324 324 323 322 322 322 322 321 320 319 318 317 317 316 315 314 313 313 313 312 310 307 305 304 305 305 306 305 304 303 304
353 351 347 346 346 347 348 350 351 351 351 352 352 351 348 345 345 346 346 345 344 342 341 342 342 342 342 341 339 338 338 337 337 335 334 333 333 332 331 331 331 330 330 329 328 328 327 325 325 326 325 324 324 324 323 322 321 321 320 320 319 318 318 317 317 316 315 314 314 313 313 312 311 310 308 307 305 304 304 305 304 303 302 303 304
352 349 347 346 348 350 352 353 352 351 351 352 352 349 348 347 346 344 342 341 341 341 342 342 341 341 341 339 337 336 336 335 334 333 332 332 332 331 331 331 330 329 329 327 327 327 326 325 325 326 325 325 324 323 322 321 321 320 319 319 318 318 317 316 316 315 314 314 313 313 312 310 309 308 307 306 305 304 304 303 302 301 302 304 304
351 351 351 351 352 354 354 353 353 353 352 351 350 348 347 346 344 342 340 339 340 341 341 341 340 340 339 337 336 335 334 333 331 330 330 330 329 329 329 328 327 326 325 325 325 325 325 325 325 325 325 324 323 322 321 321 320 320 319 319 319 318 317 316 315 314 314 314 313 312 311 309 308 307 306 305 305 304 303 302 300 302 304 304 304
351 352 352 353 353 353 353 352 351 350 349 348 348 347 345 344 342 341 340 340 339 339 338 339 339 338 337 336 334 332 331 330 328 328 327 327 326 326 325 325 324 324 324 324 324 325 325 325 325 325 325 323 321 320 320 320 320 320 319 319 318 317 316 315 314 313 313 312 311 310 309 308 307 306 306 305 304 302 301 300 301 303 304 303 304
348 349 350 350 349 348 347 347 346 345 345 345 345 344 343 342 341 340 339 339 339 338 337 337 337 336 336 335 332 329 328 327 326 325 325 324 324 324 323 324 324 324 324 324 325 325 324 324 324 324 323 321 319 320 320 320 319 318 317 317 316 316 315 314 313 312 311 311 309 308 307 306 306 305 305 304 302 301 300 300 301 303 303 303 304
344 346 346 345 344 343 343 343 343 343 343 343 343 344 344 342 341 341 340 338 338 338 336 334 334 333 333 332 331 328 326 324 323 323 323 322 322 322 323 324 324 325 325 325 324 324 323 322 322 321 320 320 320 320 320 319 317 316 315 315 315 314 314 313 313 312 310 309 308 307 306 305 305 305 305 303 302 300 299 299 301 302 303 304 305
342 342 342 341 341 341 340 341 342 343 344 344 343 343 343 341 339 340 340 339 339 338 336 334 333 332 330 331 330 328 324 323 322 321 321 322 322 323 324 325 325 325 325 324 323 323 322 322 322 321 321 321 321 320 319 317 315 315 315 315 314 314 314 313 312 310 309 308 308 307 306 305 305 305 305 303 301 299 297 297 299 301 302 304 304
340 339 337 337 337 337 337 338 340 341 341 340 339 338 337 337 337 339 339 337 335 333 332 332 332 331 329 330 330 328 324 322 322 321 321 322 324 325 325 325 325 326 325 324 323 323 323 323 323 322 321 321 320 319 318 316 315 315 315 315 314 313 313 312 311 310 309 309 308 307 306 305 305 305 304 303 301 298 297 296 297 299 302 304 304
340 339 337 335 334 334 335 335 336 337 336 335 334 333 333 333 334 335 334 331 329 328 327 327 327 326 326 326 326 325 323 322 321 321 322 324 325 326 326 326 326 325 325 324 323 323 323 323 322 322 321 320 320 319 318 316 315 315 315 314 314 312 311 311 310 310 310 308 307 306 305 305 304 304 304 303 300 297 296 296 297 299 302 304 303
339 340 338 335 332 332 332 334 335 337 337 334 333 334 333 330 330 331 331 330 330 329 327 326 325 324 323 323 322 321 321 322 323 324 325 326 326 326 326 326 326 325 324 323 323 323 323 322 322 321 320 320 319 318 317 316 315 315 315 314 313 312 311 310 310 310 309 307 306 305 304 304 304 303 303 301 298 296 296 296 297 300 302 303 303
338 338 337 334 330 328 329 330 332 334 333 332 332 333 333 331 331 332 332 332 332 331 330 329 327 326 325 324 323 323 324 325 326 326 326 326 326 325 325 325 324 324 322 322 322 322 322 321 321 320 320 319 319 318 317 316 315 315 315 314 313 312 311 311 310 309 308 306 305 303 303 303 302 301 300 298 296 296 296 296 297 300 302 302 302
334 333 332 331 329 328 330 332 333 332 333 334 335 334 334 333 333 333 333 332 332 332 331 330 328 327 326 326 326 326 326 326 325 325 325 325 325 324 323 323 322 322 321 321 321 322 321 321 320 320 319 319 319 318 317 316 316 315 314 313 312 311 310 310 309 308 308 307 304 302 302 302 300 299 297 296 296 296 296 296 298 301 301 301 302
331 330 330 331 330 330 332 334 334 334 335 335 335 334 334 333 332 332 332 332 332 331 330 329 327 327 327 327 327 326 326 325 325 324 324 323 323 323 323 323 322 322 321 321 321 321 321 321 320 320 320 319 319 318 317 316 316 315 314 313 312 310 309 309 308 308 307 307 305 302 301 300 299 297 296 296 296 296 296 296 299 301 301 301 302
331 330 330 331 332 333 333 334 333 333 333 333 332 332 333 332 331 332 332 331 331 330 329 328 328 327 327 326 326 325 325 325 325 325 324 323 323 323 323 323 323 322 322 321 321 321 321 321 320 320 319 319 319 318 317 316 316 314 313 312 311 310 309 309 308 308 307 307 306 302 299 297 297 297 296 296 296 296 296 297 299 300 300 301 303
332 331 330 331 333 333 332 332 332 332 332 332 331 331 331 331 330 330 330 329 329 328 327 327 327 326 324 322 321 320 320 320 321 323 324 324 324 323 323 323 323 322 322 322 321 321 321 321 321 320 320 319 319 318 317 316 315 313 312 311 310 309 308 306 305 305 305 305 303 300 297 296 296 297 296 296 296 296 296 297 299 299 300 302 304
330 331 331 332 332 331 330 330 331 331 331 331 330 330 330 329 328 328 328 328 327 327 327 327 326 324 321 318 318 318 317 317 317 319 321 322 323 324 324 323 322 322 322 322 321 321 321 321 321 320 320 320 319 318 317 315 314 313 312 310 308 306 305 303 302 300 300 299 298 297 296 296 296 296 296 297 296 296 296 297 298 299 300 302 304
328 329 330 330 330 330 329 330 330 330 330 330 330 329 329 328 327 326 326 326 326 326 326 324 323 322 321 320 319 318 318 317 317 317 319 320 321 322 322 322 322 322 322 322 321 321 321 321 320 320 319 319 319 317 316 314 313 312 311 309 306 305 305 305 304 302 299 297 296 296 296 296 297 296 296 297 296 296 296 298 299 299 300 302 304
327 328 328 328 327 327 328 328 328 328 328 328 328 327 327 326 325 325 324 323 323 324 323 321 320 321 322 322 321 321 320 319 319 319 320 320 320 321 321 321 321 321 321 321 320 320 320 320 320 320 319 319 317 316 315 313 312 311 309 308 306 306 306 306 306 304 300 297 296 296 296 296 296 296 296 296 296 295 296 298 299 299 300 301 302
Wind_Speed
48 46 45 44 43 42 42 43 43 44 43 43 42 41 40 38 37 36 35 35 33 32 31 30 30 30 29 28 26 24 22 23 24 24 25 25 24 23 23 22 22 22 22 23 24 25 25 25 25 26 26 25 24 23 23 23 23 22 21 19 17 16 15 16 15 12 11 12 11 11 11 12 12 12 12 12 11 11 12 12 12 13 14 15 16
50 48 45 44 43 41 40 41 43 44 44 44 43 43 42 40 38 38 37 36 35 34 33 32 31 31 31 30 28 26 24 24 25 25 25 26 26 25 25 24 23 23 23 24 25 25 26 26 27 27 27 26 26 25 24 22 23 23 22 20 18 17 17 17 16 14 13 12 11 11 11 12 12 11 12 13 13 13 14 14 14 14 14 16 16
51 49 47 46 44 40 39 40 42 43 44 45 44 44 43 42 40 40 39 38 37 36 35 34 33 32 32 32 30 28 27 26 27 27 26 26 27 27 26 26 25 24 25 26 26 27 27 27 27 28 28 27 27 27 25 24 24 24 23 21 19 18 19 18 16 14 13 12 13 12 11 12 13 12 12 14 15 16 16 16 15 15 16 17 18
51 50 48 47 45 42 40 39 41 43 45 46 46 45 44 44 42 41 40 39 39 38 37 35 35 34 34 34 33 31 30 29 29 30 28 27 26 27 27 27 27 26 26 26 27 28 28 27 27 28 30 30 29 29 28 28 27 27 26 23 21 21 20 18 17 16 15 15 14 13 11 12 13 14 14 16 17 17 18 18 16 16 16 18 19
51 51 50 48 47 45 42 40 41 43 45 46 46 46 45 45 44 43 42 41 40 39 38 38 37 37 37 36 35 33 32 31 31 31 30 29 27 27 28 28 29 28 27 27 29 29 29 28 27 28 30 32 32 31 31 30 30 29 27 25 24 23 21 20 19 18 18 18 16 14 13 13 15 15 16 18 19 19 20 19 18 17 18 19 20
52 52 51 50 49 47 45 42 41 42 44 46 47 47 47 46 46 44 43 42 42 41 40 40 40 40 39 38 37 36 34 33 32 32 31 30 29 28 28 29 30 30 29 29 30 30 30 29 28 28 30 32 33 32 30 29 29 29 26 24 25 24 22 21 20 20 20 20 18 16 15 15 16 17 18 19 21 21 21 21 20 18 19 20 21
52 52 52 51 51 49 47 44 42 42 43 45 46 47 48 48 47 46 45 44 43 43 42 42 41 41 41 39 38 37 36 35 34 33 33 32 30 30 30 30 31 31 30 30 31 31 31 31 30 29 30 31 31 30 28 27 27 28 25 23 24 25 23 22 22 22 22 21 18 17 16 17 19 19 20 21 23 24 23 22 21 20 21 23 24
52 52 52 52 52 51 49 46 43 42 42 44 46 48 49 49 49 48 46 45 45 44 43 42 42 42 42 41 40 39 38 38 37 36 36 34 33 32 31 31 31 32 32 31 31 31 32 32 32 31 30 30 30 29 29 28 27 27 25 23 23 23 23 23 23 23 22 20 18 18 18 20 22 22 22 23 25 25 23 22 22 22 23 24 24
53 53 53 53 53 52 49 47 46 44 43 44 46 48 49 50 50 49 48 48 46 45 44 44 43 43 43 43 42 41 41 41 40 39 38 36 35 33 32 32 31 32 33 33 32 31 32 33 33 32 30 29 29 29 29 30 29 28 26 24 23 23 23 23 22 21 20 19 19 20 21 23 25 25 25 25 25 24 21 20 22 24 25 24 22
54 54 54 54 53 51 50 49 48 47 46 46 46 48 49 50 50 50 50 49 48 46 46 45 44 44 44 44 44 44 44 43 42 41 40 38 36 34 33 32 31 32 34 34 33 32 32 33 34 33 30 29 29 29 29 30 30 28 26 24 25 25 24 23 22 21 21 20 21 22 24 27 27 27 27 27 25 22 21 21 23 24 25 26 24
56 56 55 53 52 51 50 50 49 49 48 47 47 48 49 50 51 51 50 50 48 48 47 46 46 45 45 45 45 45 45 44 43 42 41 39 37 35 34 32 32 33 34 34 33 33 33 33 33 33 31 29 29 30 30 30 29 28 26 26 26 25 24 23 23 22 21 21 22 24 27 30 30 29 29 27 24 21 20 21 23 24 24 26 26
56 56 55 53 52 52 51 51 51 51 50 49 48 49 49 50 51 51 51 50 48 48 47 47 46 45 45 46 46 46 45 44 43 43 41 40 37 35 33 32 32 34 35 33 32 32 33 33 33 34 33 31 30 31 31 29 27 26 26 26 27 26 24 23 22 22 21 21 23 26 29 31 31 30 28 26 23 21 22 22 23 24 25 26 27
57 56 55 53 52 51 51 51 51 51 51 50 49 49 50 51 52 52 51 50 48 48 47 47 46 45 45 45 45 44 43 42 43 43 41 39 37 34 32 32 32 34 35 34 32 31 31 32 33 34 33 33 31 30 30 28 27 28 29 29 31 29 24 22 23 22 20 21 24 27 29 30 31 30 26 23 22 23 24 24 24 25 26 26 27
56 56 55 54 52 51 51 51 52 52 51 50 50 50 52 52 52 52 51 50 49 49 48 47 46 45 44 44 43 42 41 41 41 41 40 37 35 32 31 31 32 34 35 34 33 32 31 32 33 33 33 33 30 29 29 28 28 31 33 34 33 29 23 21 22 21 19 21 25 28 29 30 31 29 23 21 23 24 25 25 25 25 26 26 27
56 56 56 54 53 52 51 51 51 51 50 50 50 51 52 52 52 51 51 50 50 49 47 46 45 44 43 42 42 40 39 39 41 40 38 35 31 30 30 31 31 33 34 34 33 32 32 32 33 31 31 31 29 28 29 29 31 36 36 33 30 28 25 23 20 20 20 23 26 29 30 31 30 26 22 21 23 24 24 24 25 25 26 27 27
56 56 56 56 55 53 52 51 51 50 49 49 50 50 51 52 52 51 51 50 49 48 47 45 44 43 42 42 40 38 38 40 40 39 35 32 29 28 29 30 30 31 33 33 32 31 31 32 32 29 28 29 28 28 30 32 36 36 32 27 24 23 24 25 22 21 22 24 27 29 30 31 28 24 22 22 23 23 23 24 25 25 26 27 27
55 55 56 57 56 55 52 51 50 50 49 49 49 50 50 51 51 50 50 50 49 48 47 45 44 43 42 41 39 38 39 39 39 37 33 30 28 27 27 29 30 30 31 31 31 31 31 31 30 27 26 27 28 29 33 35 34 31 26 23 22 22 24 25 23 22 24 26 28 29 30 29 26 23 22 23 22 23 25 26 26 24 24 26 26
56 56 57 58 58 57 54 52 51 50 49 49 49 49 49 49 49 49 49 49 49 47 46 45 44 43 42 41 39 39 39 38 37 34 31 28 27 26 25 27 28 29 30 31 32 32 31 30 28 26 25 27 28 32 33 30 25 24 26 26 25 25 25 25 23 23 25 26 27 29 28 26 23 23 23 23 24 25 26 24 22 20 21 23 23
57 57 58 58 59 58 56 53 52 51 50 49 48 48 48 47 47 47 47 47 47 46 45 44 44 43 41 41 40 39 38 37 35 32 28 26 25 23 23 25 27 28 29 31 33 32 30 29 28 27 27 28 29 31 29 24 19 18 24 24 23 22 22 23 25 26 26 26 27 27 25 23 23 24 25 25 26 25 22 19 18 17 18 19 19
57 58 59 59 59 59 58 55 53 52 51 49 48 47 46 46 46 45 44 45 45 44 44 44 43 42 41 40 39 38 36 34 32 29 26 23 22 21 22 24 25 26 26 28 30 30 29 29 29 29 28 29 28 27 25 23 19 16 19 20 20 20 20 21 23 24 25 26 25 24 24 24 25 25 26 26 25 21 18 17 17 17 18 20 23
55 57 59 60 59 59 58 57 55 54 52 50 48 47 47 46 46 45 44 44 43 43 43 43 42 41 40 38 36 34 32 30 27 25 22 21 20 21 22 23 22 22 23 23 25 26 27 28 29 29 28 28 27 26 25 25 22 18 18 19 19 19 19 20 20 22 23 24 24 24 25 26 26 26 25 23 20 18 16 16 18 19 21 24 28
54 57 59 60 59 58 57 57 56 55 53 51 50 49 48 47 46 45 44 43 42 42 42 41 40 39 37 35 32 30 29 26 24 21 20 20 20 20 21 21 19 19 19 20 20 22 24 26 27 27 26 25 26 25 24 23 20 18 18 19 18 18 18 18 19 20 21 22 23 24 24 24 24 22 19 17 15 15 16 18 19 21 22 26 27
53 57 58 58 58 58 58 57 56 55 55 53 52 51 50 48 47 46 44 42 41 41 41 40 39 37 34 32 29 28 26 23 21 19 19 18 19 20 20 19 18 17 17 17 18 19 20 21 22 23 23 24 23 20 17 16 17 17 17 16 16 16 16 17 18 18 18 19 19 19 17 16 14 13 11 11 12 14 15 17 18 20 23 25 23
55 57 56 56 56 55 55 56 56 56 55 55 53 52 50 50 48 46 44 42 41 40 40 39 37 35 32 30 28 27 24 22 20 19 18 15 16 18 19 18 16 15 15 16 16 15 15 16 18 20 20 19 16 13 13 14 15 16 15 14 13 14 14 14 14 14 14 14 13 12 9 7 6 7 9 11 12 14 15 16 17 20 23 23 19
45 52 54 54 54 54 54 54 55 55 55 56 55 53 51 50 49 45 42 41 40 40 40 39 37 34 32 30 29 27 24 22 21 19 16 13 14 16 18 17 15 15 16 16 15 14 14 14 15 14 12 11 10 11 12 13 13 13 12 11 11 11 11 10 10 10 11 10 9 7 5 4 5 7 10 13 15 17 18 19 21 22 21 18 15
34 43 50 53 54 54 53 53 53 53 54 55 54 54 53 50 47 45 43 42 40 39 39 38 36 34 31 30 28 25 22 21 20 17 15 14 16 18 18 18 17 17 17 17 16 15 14 14 13 11 8 8 9 10 10 10 11 11 10 10 9 9 8 8 7 8 8 7 6 6 6 6 7 9 12 15 17 19 20 21 22 20 17 15 15
33 37 44 48 51 52 53 53 53 53 53 53 53 52 51 49 47 46 44 42 39 38 37 36 34 32 30 28 25 21 20 20 19 17 16 18 19 19 20 19 19 18 18 18 17 15 14 14 13 11 9 9 8 8 8 9 9 8 8 8 8 7 7 6 7 7 7 5 5 6 7 9 10 12 14 16 17 19 19 19 18 16 14 14 15
34 35 39 43 46 50 52 54 54 54 53 53 52 50 48 47 45 42 40 38 38 37 36 34 33 31 28 25 21 20 21 22 19 16 17 18 20 20 20 20 19 19 19 18 16 15 15 14 13 11 10 9 7 6 7 7 6 6 6 7 8 8 8 8 8 7 6 5 7 8 10 12 13 13 14 15 16 17 16 15 14 14 14 14 16
32 34 38 41 44 47 49 51 54 56 54 52 50 48 46 42 38 35 35 34 33 32 32 31 30 27 24 21 19 21 23 20 16 15 16 17 17 18 17 17 17 17 17 15 14 14 14 13 12 10 9 7 6 6 6 6 6 6 6 7 9 10 10 10 9 7 6 8 10 11 12 13 12 11 12 14 15 16 15 14 13 13 13 15 16
37 39 41 41 42 45 49 52 55 56 55 53 51 47 42 37 33 32 32 29 25 24 24 24 23 22 21 19 18 17 16 14 14 15 15 14 14 14 13 13 14 15 14 14 13 14 13 12 10 8 8 7 6 7 7 6 6 7 8 9 10 11 11 11 10 9 9 11 12 12 12 11 11 11 13 14 16 16 15 12 11 12 14 16 17
39 42 45 46 45 45 47 50 51 52 52 52 50 46 41 35 31 28 26 25 24 23 21 20 20 20 19 19 19 17 15 15 15 15 14 13 14 14 14 13 14 13 13 12 12 12 12 10 9 8 8 8 8 7 7 7 7 8 10 11 12 12 12 12 11 11 12 13 12 12 12 12 12 13 14 15 16 15 13 11 10 13 15 17 17
32 36 40 47 48 45 43 44 46 47 45 42 40 40 39 36 32 28 25 25 24 22 21 20 20 18 17 17 18 17 16 16 16 15 14 13 14 15 15 15 14 13 13 12 12 11 11 10 10 10 10 10 10 8 8 9 9 9 11 13 14 14 14 13 13 13 13 13 13 13 12 13 14 15 15 16 15 14 11 10 12 14 17 17 17
30 30 30 34 38 38 39 41 39 35 33 32 34 36 37 36 34 32 30 27 23 20 19 19 19 18 18 17 16 15 14 15 16 16 16 15 16 16 16 16 15 14 13 13 12 12 11 12 13 13 13 12 10 9 9 9 9 10 11 12 13 14 14 14 13 13 13 13 13 12 13 13 15 16 16 15 14 12 11 12 14 17 18 18 16
27 26 25 27 31 34 37 36 31 28 30 34 35 33 31 31 31 31 30 27 24 21 19 19 19 19 19 18 16 16 15 15 16 17 16 17 18 19 18 17 16 15 14 13 11 11 13 14 15 15 14 12 10 9 9 8 8 8 8 9 10 10 10 10 10 11 11 11 11 12 13 14 14 15 15 14 13 12 11 12 15 17 17 15 15
21 23 24 27 29 30 31 30 30 31 32 31 28 26 25 25 24 23 24 24 25 25 24 21 20 19 19 18 16 17 18 18 17 18 18 18 19 20 20 19 18 17 16 14 12 12 13 15 15 15 14 11 10 9 8 8 8 7 7 8 8 8 8 8 8 9 10 10 12 13 13 13 13 12 12 13 12 12 12 14 16 15 13 13 15
23 25 24 24 24 24 25 26 27 28 26 24 22 22 21 20 19 19 20 21 24 26 25 22 21 20 18 17 17 18 18 17 17 17 17 17 18 19 19 19 17 16 14 13 12 13 14 15 15 15 13 12 12 12 11 10 10 9 9 10 10 10 10 9 9 10 11 12 13 14 14 13 11 10 10 11 11 11 13 14 14 12 11 13 15
23 26 26 25 24 24 24 24 23 22 22 22 22 21 19 17 16 17 19 20 22 23 22 21 21 21 20 19 18 18 18 17 17 17 17 17 17 17 16 14 13 13 12 12 13 14 14 15 15 14 13 13 13 12 10 10 10 10 10 10 10 10 11 11 11 11 12 12 13 13 13 12 10 9 10 10 11 12 13 13 12 12 12 13 14
19 22 25 26 25 24 24 23 23 22 22 22 21 21 21 19 18 17 19 20 20 19 19 19 20 21 21 21 19 19 19 19 19 19 19 18 17 15 13 12 12 12 12 12 13 13 13 14 14 13 14 13 11 9 9 10 10 9 9 9 10 10 11 11 11 11 11 12 12 12 12 10 9 10 11 11 11 12 13 12 12 13 13 13 14
16 19 21 22 22 22 23 23 23 23 23 22 22 22 22 21 20 19 19 18 18 17 17 18 19 19 19 19 20 20 20 20 19 19 18 17 15 13 13 13 13 13 13 13 13 13 13 13 13 13 13 11 8 8 9 9 9 8 8 8 9 11 13 13 13 12 11 11 12 13 12 10 10 11 11 11 11 12 13 13 13 13 13 13 15
17 18 18 19 20 21 21 21 21 22 22 23 22 22 21 21 20 19 18 17 17 16 15 15 16 16 16 18 19 20 19 18 17 16 15 14 14 13 13 13 14 15 15 15 14 14 13 13 12 12 11 9 9 10 9 7 6 6 7 8 10 12 14 14 13 12 11 12 14 15 13 11 10 12 12 11 11 13 14 14 14 13 13 14 15
19 19 19 19 20 20 20 20 20 20 21 21 20 19 20 19 19 18 17 16 15 15 13 13 14 15 16 16 16 16 15 15 14 12 11 11 12 12 13 14 15 15 15 15 15 14 14 13 12 11 10 10 11 10 8 6 6 7 8 9 11 12 12 12 11 12 13 15 16 16 14 13 13 14 14 13 13 14 14 14 14 14 13 13 15
18 19 19 19 20 20 20 20 19 19 19 18 17 17 17 17 16 17 18 16 14 13 14 15 16 16 16 16 14 14 13 13 11 10 10 10 11 11 12 13 13 13 13 14 15 15 14 13 12 11 11 12 11 9 7 7 8 8 9 10 11 12 11 12 12 13 15 16 16 16 15 14 14 15 14 14 14 14 14 14 14 13 11 12 13
18 18 18 17 16 15 14 14 15 16 15 14 13 13 13 12 13 16 17 16 14 13 13 14 15 16 16 15 15 14 14 13 12 11 11 11 11 11 11 11 11 12 13 15 15 15 14 13 12 12 12 12 10 8 8 8 8 8 9 11 12 12 12 13 14 14 15 15 16 16 16 15 16 15 14 14 14 14 13 14 14 11 10 12 12
17 17 16 12 9 7 7 9 11 12 12 12 12 12 12 12 12 14 14 14 14 14 14 14 14 15 16 16 16 16 15 14 14 13 13 13 13 12 12 12 12 13 15 17 17 15 14 14 14 14 12 11 9 8 8 8 8 9 11 13 13 13 13 14 14 14 14 13 14 16 16 16 16 15 13 13 13 13 13 14 12 11 11 11 10
11 12 10 9 8 9 10 12 13 14 15 15 15 15 15 14 14 14 14 15 16 16 14 14 14 14 14 15 14 15 14 13 12 12 12 12 12 12 12 12 12 14 16 18 17 15 14 14 15 14 13 11 9 9 9 9 11 13 13 13 14 14 14 14 15 14 14 13 13 14 16 15 14 13 12 12 12 13 13 12 11 11 11 9 7
8 9 9 10 12 13 14 15 15 16 17 17 17 16 16 15 15 15 15 15 15 14 13 13 13 12 11 10 10 10 10 10 10 11 11 11 12 13 12 11 11 12 14 15 15 14 14 14 14 13 12 11 10 10 10 11 13 14 14 14 14 14 13 14 14 14 14 14 14 15 16 15 14 13 12 12 12 12 12 11 11 11 10 7 5
9 10 10 12 16 18 18 18 16 15 15 15 16 16 16 15 14 14 14 14 13 13 12 12 11 9 7 6 6 7 7 7 8 9 10 11 12 13 13 13 13 13 13 13 13 14 14 14 14 13 13 12 12 11 11 12 13 13 13 14 14 13 13 14 14 14 14 15 15 16 15 14 13 11 11 11 12 12 11 11 11 10 7 5 5
11 11 12 15 17 18 18 17 14 13 14 16 16 16 16 15 14 14 13 12 12 12 12 11 9 7 6 6 6 5 6 6 7 8 10 11 12 13 13 14 14 14 14 13 13 14 15 15 15 14 14 13 13 12 12 12 11 11 12 13 13 13 13 13 13 13 14 14 14 14 13 12 11 10 10 11 11 11 11 11 10 8 4 4 6
8 8 9 11 12 12 12 12 13 14 16 18 17 16 16 15 15 13 12 12 11 11 10 9 8 7 7 7 8 8 8 9 9 9 10 13 15 16 15 14 13 14 14 14 14 14 15 15 16 16 15 15 14 13 12 11 11 11 12 13 11 10 8 8 8 8 9 10 10 10 10 10 10 10 10 11 11 11 10 10 9 6 4 6 7
3 5 6 7 7 8 11 13 13 14 16 17 16 15 13 12 11 10 10 10 10 10 9 8 9 9 8 7 7 8 9 10 11 11 11 13 15 16 15 14 12 13 13 14 14 14 14 15 16 17 16 16 14 12 10 9 9 10 11 10 7 5 6 7 8 9 9 9 9 9 9 9 9 9 10 11 11 10 9 9 8 6 6 8 8
1 3 5 6 7 9 10 10 10 12 14 15 14 12 11 10 9 8 8 9 10 10 10 9 9 10 10 9 8 9 9 10 11 12 12 13 14 14 14 13 12 12 13 13 13 13 13 15 17 17 17 15 12 11 10 9 7 7 7 6 5 4 6 8 10 11 11 10 9 8 8 8 8 9 10 10 10 9 8 9 8 8 9 10 10
Wind_Direction
220 221 222 223 224 226 228 229 228 228 227 227 227 226 226 228 229 231 230 230 230 231 231 230 228 227 227 228 230 233 232 224 220 221 223 226 228 229 228 228 231 230 226 226 226 224 223 223 222 220 219 221 226 232 235 238 240 241 242 241 236 236 236 234 234 229 222 224 225 225 229 236 240 244 256 270 278 283 289 294 296 297 298 301 302
218 220 220 221 223 225 228 229 228 228 228 228 227 226 227 228 229 230 230 230 231 232 232 230 228 228 229 230 232 234 233 226 222 222 224 225 227 229 229 228 229 231 230 228 228 227 225 223 223 225 225 226 229 232 233 233 236 240 240 236 231 233 232 229 231 229 223 222 225 228 231 239 248 256 269 280 287 289 291 296 300 302 305 305 303
217 218 219 220 222 223 226 228 228 228 228 228 227 227 227 227 229 230 230 231 231 232 232 231 230 230 230 231 233 234 233 228 225 225 227 227 228 230 231 230 230 231 232 231 229 230 228 225 225 227 231 233 233 233 234 234 237 241 240 236 233 234 233 232 235 236 233 228 228 235 242 252 267 278 284 288 293 293 293 295 299 303 307 307 304
216 217 218 220 221 222 224 226 227 227 228 228 227 226 226 227 229 230 231 231 231 232 233 232 232 232 233 234 234 234 233 231 229 228 230 231 231 233 234 234 233 233 234 234 233 232 231 230 228 228 231 236 236 236 236 237 239 243 242 239 235 234 234 235 237 241 247 245 239 245 259 269 280 289 292 292 293 293 293 294 295 299 303 303 300
214 216 217 218 219 221 223 224 226 227 228 228 227 226 226 227 228 230 231 231 231 232 232 231 231 233 235 237 237 236 236 235 234 233 233 235 235 236 237 237 236 236 236 236 237 237 235 234 233 230 231 235 237 238 238 239 240 241 240 237 233 232 234 236 238 242 252 257 254 258 270 278 287 296 297 294 292 291 291 292 293 295 298 298 296
213 215 216 216 218 221 222 223 225 227 228 227 227 226 226 226 228 230 231 232 232 232 233 233 232 233 235 238 239 240 240 239 239 239 239 239 239 239 240 240 238 237 236 237 238 239 238 237 235 233 233 236 237 237 237 238 238 237 236 233 230 232 235 235 236 242 252 257 258 264 276 284 292 298 301 298 293 290 290 292 292 294 297 298 297
213 214 215 216 218 221 223 224 225 226 228 228 227 226 226 226 228 230 231 231 232 233 234 234 234 235 237 239 241 242 242 242 243 244 244 244 244 243 242 242 241 238 237 237 238 239 239 238 236 235 236 238 240 240 240 240 238 236 236 233 232 235 238 238 240 245 249 251 257 270 282 289 291 296 301 301 295 291 292 293 293 296 299 299 299
213 214 215 216 218 221 224 225 225 226 227 228 227 226 227 227 228 230 231 231 232 234 235 236 236 237 238 240 242 243 243 244 245 245 245 246 246 246 245 245 244 241 239 238 238 239 240 239 237 237 237 240 245 247 247 249 246 240 236 234 234 238 242 243 242 244 245 249 260 274 284 290 292 294 298 299 296 294 294 292 293 296 299 299 299
214 214 215 217 220 222 223 224 225 226 226 227 227 226 227 228 228 230 231 232 233 234 235 236 237 239 240 241 242 243 244 245 246 247 247 247 248 248 247 248 248 246 243 241 239 240 241 241 240 239 239 241 246 250 252 254 249 240 236 236 238 242 246 246 244 246 248 254 266 276 283 290 293 294 296 297 297 295 290 288 291 295 297 296 297
214 214 216 220 221 221 222 224 224 225 225 226 227 227 227 228 228 229 231 232 233 233 234 235 237 239 241 242 242 243 245 247 248 249 249 250 250 251 250 251 252 251 247 244 243 242 242 243 243 243 242 243 247 252 255 253 245 238 238 242 244 246 248 248 250 253 255 260 270 278 284 289 293 295 295 296 296 291 286 287 290 292 293 294 296
214 215 218 221 221 220 222 223 224 224 225 226 227 227 227 228 228 229 230 231 232 232 233 234 237 239 241 242 243 245 247 249 251 251 251 251 252 252 253 254 256 256 252 249 247 246 246 247 247 247 246 245 248 252 254 249 241 237 240 244 247 249 250 253 256 257 260 269 276 280 284 289 293 296 296 295 294 289 286 287 288 288 290 293 296
214 216 219 221 221 221 222 223 223 224 225 225 227 227 227 227 227 228 229 230 231 232 233 235 237 239 240 242 244 246 249 252 253 252 252 252 252 253 255 256 257 258 257 255 252 250 251 252 251 249 249 248 249 252 251 246 240 239 242 246 248 247 247 253 257 257 262 272 277 279 284 290 294 296 295 293 290 287 286 287 287 287 289 291 293
214 217 218 219 222 223 223 223 223 224 225 226 226 226 226 227 226 226 228 230 231 232 234 236 238 239 241 242 245 248 251 253 253 253 252 252 253 254 256 257 258 259 259 259 256 254 256 259 257 252 251 250 250 252 253 249 246 246 246 245 245 243 241 245 251 256 266 274 276 279 284 290 293 294 293 289 285 285 286 287 289 289 289 289 290
214 217 217 218 222 223 223 223 223 224 225 226 225 226 226 226 226 226 227 228 230 232 235 237 238 240 242 244 247 249 252 254 254 253 252 252 253 254 256 257 257 259 260 260 259 256 258 264 263 257 253 252 252 255 256 252 248 246 243 242 245 245 239 240 248 260 272 276 277 281 286 290 292 293 289 283 282 284 287 289 291 290 288 288 290
215 216 217 218 221 222 223 224 225 225 225 225 225 226 226 225 225 225 226 227 230 233 235 236 238 240 242 244 247 250 253 254 254 253 252 252 253 254 254 254 255 258 259 260 259 258 258 264 267 263 257 256 255 256 255 250 245 244 243 243 246 245 239 239 250 264 272 274 278 283 286 288 290 289 284 279 281 286 289 290 289 289 288 288 290
216 216 217 218 220 222 223 224 224 224 224 224 225 225 226 226 226 225 225 227 230 232 234 236 238 240 241 243 245 249 252 253 253 252 252 253 253 251 250 251 253 255 258 259 260 259 259 262 265 263 258 255 254 253 253 250 246 244 241 240 246 246 242 243 252 264 271 276 281 283 285 288 288 284 282 283 286 289 290 289 289 290 291 291 290
216 217 218 219 220 221 223 223 224 223 223 223 224 225 225 226 226 225 225 227 229 231 234 236 238 239 241 242 245 249 251 252 253 253 253 253 251 248 248 249 250 252 256 259 260 259 259 260 262 260 255 252 253 253 252 251 249 242 234 235 243 248 248 248 253 262 270 277 281 282 285 288 286 284 286 287 288 290 291 290 290 290 290 291 292
218 219 220 221 221 221 222 223 223 223 223 223 224 225 224 225 226 227 227 229 231 233 235 236 238 240 242 244 247 249 250 253 254 255 255 254 250 248 247 248 248 250 253 256 257 256 257 257 256 253 250 249 252 253 256 264 268 252 236 231 235 242 251 257 258 261 268 276 281 283 285 286 285 286 287 285 287 290 289 287 287 288 289 290 293
220 221 224 224 222 221 221 222 223 222 223 224 224 224 225 225 226 227 229 231 233 234 235 235 237 240 242 245 246 247 250 253 255 256 257 254 250 247 246 246 247 249 251 254 254 254 254 254 252 250 249 250 253 258 264 279 289 259 232 228 235 247 260 263 259 259 267 277 283 284 283 282 283 284 283 284 287 286 280 279 286 292 294 295 297
224 225 226 226 223 221 220 221 223 223 224 224 224 225 225 224 225 226 228 230 232 233 234 235 237 239 241 242 244 246 248 251 253 255 254 251 248 246 244 245 246 247 251 254 254 254 254 253 250 248 249 252 257 263 268 278 287 265 238 238 252 263 267 264 260 263 271 278 282 281 277 277 280 282 282 284 284 278 272 280 290 295 299 303 304
227 227 226 224 223 221 220 221 222 224 224 223 222 223 224 223 224 225 226 227 229 230 232 233 235 237 239 240 242 244 246 248 250 248 246 247 248 246 244 245 246 248 250 253 255 255 255 254 250 249 251 255 260 266 271 277 281 268 250 254 267 271 269 266 266 270 275 278 280 279 279 282 284 285 284 282 277 270 272 283 291 294 300 306 307
228 227 225 224 222 222 221 221 221 221 220 220 220 220 221 222 223 223 223 223 226 227 229 230 231 233 235 236 238 241 242 243 242 241 244 248 247 242 241 242 244 245 246 247 249 252 254 256 254 252 255 260 263 268 273 273 268 258 254 262 269 268 266 268 270 274 278 281 282 284 287 290 290 289 286 281 277 278 281 287 290 292 297 304 306
231 227 224 223 222 222 221 220 218 216 216 217 218 218 218 218 219 219 219 220 222 224 226 226 227 228 228 229 232 235 237 236 234 237 243 243 237 231 232 234 233 233 236 238 242 248 253 256 255 255 260 266 269 272 271 262 254 253 257 261 262 264 268 272 275 278 282 284 287 291 294 296 296 295 288 284 290 296 296 295 293 292 297 303 303
229 225 224 224 223 221 219 217 216 213 213 214 215 214 215 215 215 215 217 218 219 220 222 222 223 223 223 225 227 229 229 228 230 234 236 229 218 215 216 217 218 222 229 234 238 244 249 252 256 260 265 268 266 256 250 247 247 251 254 257 264 271 273 274 277 283 288 291 294 299 305 307 305 299 293 294 301 305 305 302 298 296 300 304 302
228 224 223 223 222 220 217 214 212 211 209 209 210 211 212 211 210 210 212 214 215 216 218 218 219 219 220 223 224 223 223 225 227 230 231 218 202 199 202 206 211 218 225 230 234 238 241 250 259 259 255 250 241 233 237 243 246 248 253 261 268 269 268 274 284 293 297 296 300 308 315 311 300 293 292 293 297 299 299 300 300 301 303 304 301
234 230 225 222 221 218 213 209 207 205 205 205 208 210 211 209 208 207 208 210 212 213 214 214 215 218 220 220 220 220 222 223 223 227 231 221 203 194 195 201 209 216 222 227 229 233 239 249 257 252 236 228 227 228 233 236 239 245 252 258 259 261 270 284 295 301 299 296 301 309 309 300 293 289 287 288 291 293 294 297 300 302 307 310 308
232 232 227 221 217 213 208 204 201 198 198 200 202 206 208 208 205 204 203 204 206 209 212 213 213 214 214 214 215 217 220 221 223 227 232 226 212 200 196 200 207 215 220 223 227 233 241 248 249 242 232 225 222 226 231 232 234 242 248 250 252 260 271 278 282 287 286 279 285 295 294 289 287 286 288 290 290 291 293 296 300 306 313 319 318
225 225 221 216 210 206 202 199 195 193 193 195 197 200 202 202 201 201 203 205 207 208 209 210 209 208 207 208 210 215 220 222 222 220 221 220 214 206 201 202 208 214 218 223 228 234 240 244 242 237 232 228 230 239 239 230 229 238 244 248 252 256 258 259 265 276 277 270 275 280 281 281 282 285 291 293 294 296 298 297 303 312 319 322 323
218 215 212 207 201 197 193 190 190 189 188 190 193 194 196 198 201 203 205 207 210 209 206 204 204 205 208 211 215 219 219 215 207 200 202 208 211 209 206 206 209 213 218 222 227 233 238 240 238 233 229 230 235 234 225 217 222 235 245 250 252 254 252 251 257 268 268 265 270 274 275 276 277 282 292 299 304 307 304 301 307 316 319 321 323
202 196 192 190 188 187 185 184 185 186 186 187 188 187 187 192 198 200 198 196 199 203 203 202 205 208 212 214 212 209 202 191 186 190 194 200 205 206 205 205 205 206 209 214 220 227 232 231 227 223 221 223 221 213 209 215 229 244 257 260 255 252 249 249 254 262 264 266 269 270 270 271 277 290 304 311 313 311 306 304 310 315 317 319 321
188 184 181 179 175 174 173 174 178 181 180 181 181 178 175 176 180 184 185 181 181 185 190 196 204 208 206 197 186 179 174 174 182 190 194 196 196 192 188 189 192 194 198 204 210 215 218 217 212 205 203 202 200 200 209 225 241 254 262 261 257 253 248 246 248 255 262 267 267 264 265 275 290 306 315 317 314 310 303 299 305 312 315 318 320
175 175 174 173 172 172 172 171 173 173 170 170 173 172 167 164 163 165 169 171 174 180 187 194 197 193 184 177 174 174 177 181 184 186 188 190 187 180 177 179 183 186 187 192 200 207 208 204 194 188 191 196 198 206 220 235 250 255 253 251 251 249 243 239 239 245 253 258 257 261 273 290 305 314 317 315 312 305 296 296 305 312 315 317 320
178 177 175 175 177 180 178 174 171 170 171 173 175 172 167 163 162 162 165 170 177 185 189 189 183 174 169 172 175 175 178 184 187 183 181 179 176 174 174 177 182 187 191 196 204 206 199 191 186 189 197 203 208 221 235 248 260 259 251 248 244 237 233 233 234 239 245 250 256 269 286 302 311 313 312 310 304 295 291 299 309 314 316 319 322
181 184 182 178 176 176 175 172 173 175 178 177 175 170 166 166 166 165 167 172 177 178 177 174 171 171 174 178 179 177 177 180 184 182 179 178 176 176 177 180 185 193 198 203 206 201 192 189 192 200 208 214 224 238 250 259 262 254 245 239 231 227 232 238 240 242 248 256 270 287 300 307 309 309 307 302 294 287 291 305 314 318 320 322 323
167 170 173 173 172 171 170 168 168 169 170 170 169 166 165 167 169 171 174 176 176 173 171 171 171 174 177 181 183 182 177 176 180 184 183 182 180 179 182 185 190 195 198 198 196 194 194 196 201 208 215 223 233 243 251 255 254 248 246 247 248 253 259 255 247 250 260 275 290 300 306 308 305 299 293 289 286 290 301 313 318 319 320 320 321
147 150 160 169 170 167 162 160 161 162 164 165 165 164 166 169 174 176 178 178 176 175 174 175 176 176 179 182 183 181 177 178 183 184 181 179 181 183 185 187 190 194 197 198 195 194 199 205 209 212 216 224 235 244 251 257 261 264 270 273 273 272 267 262 263 271 280 290 299 304 305 302 293 281 276 280 289 301 310 316 316 313 313 318 322
139 142 151 160 162 160 159 159 162 163 165 165 165 164 166 170 175 178 178 177 176 176 177 179 181 180 179 179 179 180 181 181 180 176 173 174 178 182 184 186 191 197 201 203 201 201 206 209 211 213 220 230 240 247 255 265 274 281 285 286 280 273 271 275 282 288 293 299 303 302 297 290 280 274 280 292 302 308 312 313 308 305 311 319 322
139 145 152 156 158 158 159 160 162 165 166 166 167 167 167 167 170 176 178 176 174 174 176 180 184 184 181 179 180 183 185 182 177 174 174 175 178 183 187 191 197 202 204 203 200 201 207 210 214 221 230 235 238 245 260 277 285 287 287 285 281 281 285 290 293 295 299 304 304 298 289 281 280 288 297 303 308 311 311 308 303 305 315 320 319
141 147 151 154 155 156 158 161 164 167 166 164 164 167 167 166 170 175 176 172 173 176 178 181 184 185 185 186 186 185 184 181 178 178 180 184 190 197 201 200 197 195 194 194 193 195 202 211 219 226 228 228 235 250 268 279 280 278 281 285 289 292 294 293 295 297 299 302 303 298 285 276 282 294 301 305 310 313 311 305 303 310 316 316 315
134 137 143 147 148 147 149 153 157 161 162 161 163 167 170 172 176 179 177 173 174 178 183 186 188 189 191 194 193 188 184 182 180 182 187 195 202 205 205 202 197 192 190 190 191 196 203 211 217 221 223 228 241 255 268 277 282 287 291 291 291 292 290 288 291 295 297 300 303 299 288 277 278 289 297 304 311 313 311 307 307 310 309 307 311
124 123 125 130 134 134 135 137 143 150 155 157 160 165 168 171 173 174 171 168 170 175 181 188 193 194 193 192 191 190 187 185 186 190 197 200 202 204 202 198 195 196 197 197 198 201 205 208 213 219 224 232 242 253 267 285 300 305 297 289 290 291 288 284 286 293 299 302 301 295 286 277 275 283 293 302 307 310 309 305 304 305 303 304 311
122 121 119 118 119 121 122 126 133 141 146 148 148 151 154 155 156 157 158 159 164 171 175 178 183 188 190 188 187 188 189 190 194 197 195 192 195 200 201 199 198 202 205 207 208 208 208 209 214 221 227 234 244 256 271 291 308 308 293 289 297 299 293 288 290 297 304 303 295 286 279 274 274 281 290 297 301 303 302 301 303 305 303 306 313
129 127 124 120 117 116 117 123 131 138 142 145 146 148 150 152 155 158 160 165 174 181 180 177 179 183 185 186 186 187 188 189 188 185 184 187 192 195 196 197 200 203 205 208 212 212 208 207 212 220 228 237 247 260 275 295 309 301 285 288 299 300 295 294 295 299 306 304 293 280 272 270 273 278 284 289 294 296 298 304 308 305 300 306 315
134 133 132 134 137 138 143 150 153 155 159 162 164 165 168 173 175 173 172 177 189 195 196 193 189 186 185 185 184 184 184 183 182 182 184 189 193 196 198 198 200 201 203 208 212 211 205 204 209 217 226 236 248 263 278 292 295 284 277 284 291 291 291 292 294 298 307 308 295 280 270 269 271 273 277 284 289 292 300 307 306 300 300 310 319
146 147 153 165 174 174 172 172 174 178 179 176 175 178 182 184 184 181 179 183 191 196 197 195 190 186 185 184 183 181 181 183 186 191 194 196 199 201 199 197 198 200 203 208 211 208 204 205 211 217 225 236 250 266 279 284 280 274 274 281 284 284 285 286 289 296 306 308 300 285 273 269 269 271 274 281 286 292 302 306 299 297 306 315 320
178 177 174 174 175 176 176 175 176 179 180 179 181 184 184 181 179 176 177 183 187 186 180 176 172 169 169 173 177 181 186 191 197 200 203 206 208 204 196 193 198 200 201 204 208 209 211 215 221 226 232 242 252 264 276 279 276 273 278 284 285 284 283 283 287 296 303 304 302 292 278 269 269 273 275 278 284 292 300 298 291 297 310 319 318
188 184 181 180 181 181 180 179 178 178 180 183 184 179 174 169 170 171 174 177 177 172 167 167 167 164 162 169 184 197 202 206 211 214 213 212 211 205 197 196 201 203 202 202 206 211 217 223 228 233 238 243 249 258 269 273 274 279 288 291 288 286 288 290 294 299 299 297 297 293 282 272 269 269 268 274 283 290 292 288 288 298 312 313 305
185 183 185 189 191 190 188 185 181 177 178 178 176 172 169 166 165 167 170 171 170 168 168 168 167 162 157 159 167 175 182 187 198 211 218 219 217 211 204 202 204 207 209 210 213 217 223 229 233 236 241 246 252 258 263 268 275 286 294 294 291 293 298 302 303 300 294 290 290 286 279 271 266 264 266 274 283 286 285 285 291 302 305 285 288
180 181 188 198 204 202 190 176 167 169 174 173 167 166 167 166 163 166 170 172 174 177 179 176 169 161 158 160 161 161 164 168 171 181 200 212 216 217 216 214 210 209 212 216 221 227 232 235 235 238 242 246 249 254 260 269 281 293 296 294 293 300 314 326 328 316 301 294 290 282 273 267 264 263 269 277 281 283 284 287 292 293 271 261 275
190 196 196 193 182 171 164 158 157 165 173 173 170 169 171 171 173 178 181 179 180 182 182 179 175 172 171 176 176 172 172 174 174 177 187 197 203 209 215 217 212 211 216 223 228 232 235 235 233 233 237 240 243 250 260 272 288 300 299 292 295 316 337 344 346 340 326 310 297 283 273 268 265 265 272 279 282 282 283 283 281 271 256 258 271
151 159 155 139 132 144 159 164 165 170 174 176 177 178 176 173 175 181 182 180 182 183 181 180 182 185 190 198 202 198 195 193 192 192 196 199 201 206 212 216 215 216 221 226 228 230 234 235 233 233 235 237 242 251 257 263 281 301 299 287 296 326 330 327 332 337 335 323 305 288 277 271 268 270 277 282 282 281 278 272 265 260 259 265 274